{"data":{"norad_id":65623,"intl_designator":"2025-210B","name":"STARLINK-35239","alt_names":[],"object_type":"PAYLOAD","status":"ACTIVE","operator":null,"country":"US","launch_date":"2025-09-18","launch_site_code":"AFETR","launch_vehicle":null,"mission":null,"orbit_class":"UNKNOWN","rcs_meters":null,"size_class":null,"mass_kg":null,"dimensions":null,"purposes":["comms"],"wikipedia_slug":null,"has_3d_model":false,"image_url":null,"decayed_at":null,"tle_current":{"epoch":"2026-05-24T21:18:42.407712Z","epoch_age_seconds":98868,"freshness":"FRESH","line1":"1 65623U 25210B   26144.88799083  .00029911  00000+0  89287-3 0  9999","line2":"2 65623  53.1599 311.9969 0001097  87.0076 273.1052 15.34399795 39411","mean_motion":15.34399795,"eccentricity":0.0001097,"inclination_deg":53.1599,"raan_deg":311.9969,"arg_perigee_deg":87.0076,"mean_anomaly_deg":273.1052,"bstar":0.00089287,"rev_number":3941,"period_min":93.847770619651,"perigee_km":461.95340926918,"apogee_km":463.45428975157,"semimajor_km":6840.8408495104,"source":"CELESTRAK","updated_at":"2026-05-25T13:38:20.857784Z"}}}